OneWeb SL0060

operational
NORAD ID: 45455 Int'l Des: 2020-020 Owner: ONEWEB Country: UK Constellation: oneweb
LEOCIRCULARPOLARONEWEB_TYPE

About OneWeb SL0060

Description loading...

Live Position

Loading 3D Globe...

Upcoming Passes

Altitude History

Altitude vs Time

uPlot chart will show altitude changes over time

Two-Line Element Set

1 45455U 20020AH 25350.21330542 -.00000305 00000-0 -89578-3 0 9992
2 45455 87.8850 57.5078 0002795 94.4849 265.6599 13.11417194278566
Epoch: Dec 16, 2025 • Age: 19 hours

Current Status

Altitude 1229.2 km
Velocity 7.24 km/s
Sub-Earth Point -28.29°S, 145.26°E
Launch Date Mar 21, 2020
Age 5.7 years
Type internet

Technical Details

Classification Payload
Mass 148.00 kg
Dry Mass 140.00 kg
Total Mass 148.00 kg
Length 1.30 m
Diameter 1.00 m
Span 5.00 m
Shape Trapezoid+2 pan
Manufacturer ONEWUS
Bus Type ARROW
Phase Status In Orbit
Owner/State ONEWEB/UK

Large Constellations

Loading constellations...